CAPE
39 25 27 16 18 0 31 1 22 0 6 9 66 32 22 43 20 11 12 18 18 13 0 1 10 5 0 1 14 119 192 262 2840 3000 2850 2768 3404 3492 3500 3308 3242 3179 3109 3050
32 37 43 46 40 31 17 0 2 1 12 37 2 37 15 49 28 28 11 14 10 21 7 0 0 7 0 0 3 4 105 373 220 1854 3105 3187 3319 3409 3368 3138 3150 3230 3348 3259
36 44 45 34 15 5 0 0 10 124 94 50 86 35 22 27 16 30 14 4 18 17 16 13 8 4 11 6 1 2 3 3 64 200 400 2696 3050 3071 3230 3315 3253 3183 3276 3309
100 65 79 26 4 26 66 121 95 48 43 31 36 25 11 14 19 7 29 45 35 25 10 17 10 8 5 1 0 0 0 0 2 4 8 288 1378 2355 2683 2966 3168 3178 3145 3175
108 54 28 0 57 82 59 36 101 64 29 17 10 8 2 18 28 12 5 23 32 53 25 8 10 9 1 0 0 0 0 0 0 4 6 3 151 732 2426 2630 2944 3059 2973 2905
110 58 38 14 29 25 43 65 7 30 30 8 12 17 59 40 24 1 2 0 1 46 45 66 23 7 0 0 0 0 1 0 0 2 4 7 6 2 394 2032 2526 2816 2830 2860
110 97 45 95 73 54 98 12 19 45 42 48 114 40 13 47 1 0 0 0 0 0 0 0 36 69 22 0 0 0 0 0 0 0 0 5 3 5 3 9 1488 2316 2507 2519
92 56 60 90 90 72 74 46 42 42 33 37 32 26 19 23 3 0 0 0 0 0 0 0 0 0 0 3 0 0 0 0 0 0 0 2 0 1 4 2 1 539 1979 1762
52 61 48 37 118 131 69 84 71 49 32 30 20 11 3 11 2 0 0 0 0 0 0 0 0 0 0 0 0 0 0 0 0 0 0 0 0 0 1 1 0 0 2 804
56 13 78 58 62 110 123 90 62 94 27 27 26 19 6 10 3 0 0 0 0 0 0 0 0 0 0 0 1 1 1 0 0 0 0 0 1 0 0 0 0 0 0 0
34 25 23 112 96 108 102 44 33 29 47 30 23 21 22 10 4 0 0 0 0 0 0 0 0 0 0 0 0 1 4 4 14 1 1 2 0 2 0 0 0 0 0 0
53 76 94 64 69 50 54 51 26 14 15 18 27 30 15 3 1 2 0 0 0 0 0 0 0 0 0 0 0 1 1 5 12 17 3 3 1 0 0 1 0 0 0 0
39 39 47 40 31 47 51 26 11 15 12 14 7 5 2 4 4 0 3 0 0 0 0 0 0 0 0 0 0 1 1 2 8 10 20 10 3 0 0 0 1 0 0 0
32 32 45 44 74 36 10 12 10 10 13 12 8 3 4 4 2 3 2 3 1 1 3 2 2 2 3 4 4 4 6 1 5 18 22 22 8 7 1 0 0 0 0 0
13 18 31 45 2 5 4 7 10 6 4 1 3 5 5 3 2 2 3 3 2 5 6 6 4 6 11 10 6 5 13 18 13 22 21 10 17 16 10 1 1 0 0 0
25 58 25 4 14 7 2 3 2 2 3 4 4 4 6 7 5 4 5 6 8 7 5 4 6 4 17 9 9 17 14 1 3 23 22 14 10 14 12 8 9 0 0 0
21 41 6 2 16 5 1 2 4 4 3 2 2 3 4 3 6 6 4 8 6 3 7 10 4 8 0 8 7 22 26 14 3 17 25 19 19 17 11 16 13 2 8 0
31 28 10 2 1 2 3 5 4 5 4 3 2 5 11 15 11 6 3 1 2 2 3 7 7 2 9 5 9 3 12 8 14 16 18 19 20 18 15 16 19 9 5 9
2 4 0 0 0 3 4 5 5 4 4 5 7 3 5 3 9 5 3 2 2 5 1 6 0 3 8 3 1 15 13 9 7 8 9 6 16 9 16 10 12 8 16 14
2 0 0 1 1 4 4 2 1 1 2 4 2 0 9 9 14 10 13 16 5 6 8 9 5 9 6 2 1 13 18 13 10 8 10 9 14 15 20 6 15 8 15 15
2 1 0 1 3 3 13 1 1 8 16 0 0 2 5 11 14 15 23 12 2 6 9 0 7 5 3 6 12 17 18 13 7 3 5 8 8 11 13 19 21 26 4 25
0 0 0 0 1 2 3 5 13 1 6 4 2 3 10 22 28 28 23 33 34 6 17 13 16 4 11 1 17 11 10 12 11 11 11 8 10 9 9 9 13 14 20 8
0 0 2 2 4 10 12 4 1 18 16 5 13 19 23 30 42 50 38 41 35 19 12 17 7 0 0 10 13 13 9 6 7 7 7 8 9 10 10 8 9 10 11 12
5 6 9 10 2 20 10 22 15 7 2 14 18 19 32 46 40 56 70 23 4 2 8 9 2 0 0 13 8 6 7 8 6 7 12 3 9 8 10 10 13 13 18 5
5 5 2 2 6 8 29 23 9 19 16 15 3 13 13 23 38 41 48 37 14 6 9 3 0 0 5 5 7 7 6 4 5 12 13 12 15 14 13 17 17 18 21 25
5 7 8 2 5 7 10 9 15 20 19 12 15 40 42 35 21 16 37 25 19 6 15 11 8 9 9 7 6 8 7 7 12 15 14 20 20 20 14 12 17 15 12 20
3 2 7 8 10 7 11 11 13 17 18 18 23 24 26 22 18 14 11 14 13 13 12 9 9 8 10 9 8 11 10 12 11 23 21 14 12 7 4 2 3 5 13 0
CIN
-0 -0 -0 -0 -0 -0 -0 -0 -0 -0 -0 -0 -0 -1 -0 -0 -0 -0 -0 -0 -0 -0 -0 -2 -0 -0 -0 -24 -352 -297 -246 -196 -1 -1 -34 -72 -43 -41 -43 -61 -59 -72 -65 -59
-0 -0 -0 -0 -0 -0 -0 -0 -0 -0 -14 -15 -9 -0 -0 -0 -0 -0 -0 -0 -0 -0 -0 -0 -0 -0 -0 -0 -0 -0 -229 -198 -249 -26 -1 -0 -20 -35 -31 -53 -59 -48 -40 -44
-2 -0 -0 -0 -0 -0 -0 -0 -2 -0 -0 -0 -1 -0 -0 -0 -0 -0 -0 -0 -0 -0 -0 -0 -0 -0 -0 -0 -0 -0 -0 -0 -256 -326 -304 -9 -3 -11 -13 -23 -35 -57 -56 -43
-0 -0 -0 -0 -4 -3 -2 -1 -18 -8 -0 -0 -1 -0 -0 -0 -0 -0 -0 -0 -0 -0 -0 -0 -0 -0 -0 -0 -0 -0 -0 -0 -0 -0 -261 -372 -114 -28 -29 -22 -23 -32 -43 -47
-0 -0 -0 -0 -2 -0 -0 -1 -0 -0 -1 -4 -0 -0 -0 -0 -0 -0 -0 -0 -1 -0 -0 -0 -0 -3 -1 -0 -0 -0 -0 -0 -0 -0 -0 -0 -462 -207 -22 -21 -18 -22 -29 -33
-0 -0 -0 -0 -4 -4 -1 -0 -0 -0 -0 -0 -0 -0 -0 -0 -0 -0 -0 -0 -0 -9 -7 -2 -4 -12 -5 -0 -0 -0 -0 -0 -0 -0 -0 -0 -0 -0 -311 -42 -18 -6 -8 -19
-0 -0 -0 -0 -1 -2 -0 -0 -1 -0 -0 -0 -0 -0 -0 -0 -0 -0 -0 -0 -0 -0 -0 -0 -6 -7 -9 -0 -0 -0 -0 -0 -0 -0 -0 -0 -0 -0 -0 -398 -92 -7 -9 -19
-0 -0 -0 -0 -0 -0 -0 -4 -3 -3 -2 -1 -0 -0 -0 -0 -0 -0 -0 -0 -0 -0 -0 -0 -0 -0 -0 -0 -0 -0 -0 -0 -0 -0 -0 -0 -0 -0 -0 -0 -0 -335 -8 -41
-0 -0 -5 -2 -0 -0 -0 -0 -0 -5 -0 -0 -1 -0 -0 -0 -0 -0 -0 -0 -0 -0 -0 -0 -0 -0 -0 -0 -0 -0 -0 -0 -0 -0 -0 -0 -0 -0 -0 -0 -0 -0 -13 -97
-0 -1 -0 -0 -0 -0 -0 -0 -7 -1 -6 -0 -0 -0 -0 -0 -0 -0 -0 -0 -0 -0 -0 -0 -0 -0 -0 -0 -0 -0 -0 -0 -0 -0 -0 -0 -0 -0 -0 -0 -0 -0 -0 -0
-0 -6 -0 -0 -0 -0 -0 -3 -4 -3 -7 -38 -0 -0 -0 -0 -0 -0 -0 -0 -0 -0 -0 -0 -0 -0 -0 -0 -0 -0 -0 -0 -0 -0 -0 -0 -0 -0 -0 -0 -0 -0 -0 -0
-2 -0 -0 -0 -0 -4 -2 -0 -5 -0 -0 -0 -0 -0 -0 -0 -0 -0 -0 -0 -0 -0 -0 -0 -0 -0 -0 -0 -0 -0 -0 -0 -0 -0 -0 -0 -0 -0 -0 -0 -0 -0 -0 -0
-0 -0 -0 -1 -3 -6 -0 -0 -0 -0 -0 -0 -0 -0 -0 -0 -0 -0 -0 -0 -0 -0 -0 -0 -0 -0 -0 -0 -0 -0 -0 -0 -0 -0 -0 -0 -0 -0 -0 -0 -0 -0 -0 -0
-1 -0 -4 -1 -0 -1 -0 -0 -0 -0 -0 -0 -0 -0 -0 -0 -0 -0 -0 -0 -0 -0 -0 -0 -0 -0 -0 -0 -0 -0 -0 -2 -0 -0 -0 -0 -0 -0 -0 -0 -0 -0 -0 -0
-0 -0 -4 -30 -10 -0 -0 -0 -0 -0 -0 -0 -0 -0 -0 -0 -0 -0 -0 -0 -0 -5 -26 -0 -0 -0 -0 -0 -0 -0 -0 -0 -0 -0 -0 -1 -0 -0 -0 -0 -0 -0 -0 -0
-6 -2 -27 -1 -0 -0 -0 -0 -0 -0 -0 -0 -0 -0 -0 -0 -0 -0 -0 -0 -0 -0 -0 -4 -1 -0 -1 -0 -0 -0 -0 -1 -2 -0 -0 -0 -1 -0 -0 -0 -0 -0 -0 -0
-12 -3 -0 -3 -0 -0 -0 -0 -0 -0 -0 -0 -0 -0 -0 -0 -0 -0 -0 -0 -0 -0 -0 -0 -3 -3 -3 -0 -0 -0 -0 -0 -0 -0 -0 -0 -0 -0 -0 -0 -0 -1 -0 -0
-11 -18 -11 -0 -0 -0 -0 -0 -0 -0 -0 -0 -0 -1 -0 -0 -0 -0 -0 -0 -0 -0 -0 -0 -0 -1 -0 -0 -0 -0 -0 -0 -0 -0 -0 -0 -0 -0 -0 -0 -0 -0 -1 -3
-0 -0 -0 -0 -0 -0 -0 -0 -0 -0 -9 -1 -4 -0 -0 -0 -0 -0 -0 -0 -0 -0 -0 -0 -0 -0 -0 -0 -0 -0 -0 -0 -0 -0 -0 -0 -0 -0 -0 -0 -0 -0 -0 -0
-0 -0 -0 -0 -0 -0 -0 -0 -0 -0 -0 -0 -9 -0 -0 -0 -2 -1 -0 -0 -0 -0 -0 -0 -0 -0 -0 -0 -1 -0 -0 -0 -0 -0 -0 -0 -0 -0 -0 -0 -0 -0 -1 -1
-0 -0 -0 -0 -0 -0 -10 -9 -2 -1 -0 -0 -0 -0 -0 -0 -0 -0 -0 -0 -0 -0 -1 -5 -0 -0 -0 -1 -0 -0 -0 -0 -0 -0 -0 -0 -0 -0 -0 -0 -0 -0 -1 -0
-0 -0 -0 -0 -0 -0 -0 -0 -0 -0 -0 -0 -0 -0 -0 -0 -1 -1 -3 -0 -0 -2 -0 -0 -0 -0 -0 -0 -0 -0 -0 -0 -0 -0 -0 -0 -0 -0 -0 -0 -0 -1 -1 -1
-0 -0 -0 -0 -0 -0 -0 -0 -0 -0 -0 -0 -0 -0 -0 -0 -0 -0 -0 -1 -0 -0 -0 -0 -1 -1 -0 -0 -0 -0 -0 -0 -0 -0 -0 -0 -0 -0 -0 -0 -0 -1 -2 -0
-0 -0 -0 -0 -0 -0 -0 -0 -1 -1 -0 -0 -0 -0 -0 -0 -0 -0 -0 -2 -2 -3 -0 -0 -0 -0 -0 -0 -0 -0 -0 -0 -0 -0 -0 -0 -0 -0 -1 -0 -0 -0 -1 -1
-0 -0 -0 -0 -0 -0 -0 -0 -1 -0 -1 -0 -0 -1 -1 -0 -0 -0 -0 -0 -0 -1 -0 -1 -0 -0 -0 -0 -0 -0 -0 -0 -0 -0 -0 -0 -0 -0 -0 -0 -0 -1 -1 -0
-0 -0 -0 -0 -0 -0 -0 -0 -0 -0 -0 -0 -0 -0 -0 -0 -0 -0 -0 -0 -0 -0 -0 -0 -0 -0 -0 -0 -1 -0 -0 -0 -0 -0 -0 -0 -0 -0 -0 -0 -0 -1 -1 -0
-0 -0 -0 -0 -0 -0 -0 -0 -0 -0 -0 -0 -0 -0 -0 -0 -0 -0 -0 -0 -0 -0 -0 -0 -0 -0 -0 -0 -0 -0 -0 -0 -0 -0 -0 -0 -0 -0 -0 -0 -0 -1 -0 -0
Wind_Speed
18 22 24 25 23 23 16 19 17 26 26 22 19 22 20 18 16 14 12 16 18 19 19 21 13 13 14 15 14 15 13 13 17 19 19 18 17 17 17 18 17 18 18 18
21 23 24 25 25 25 22 23 23 26 25 17 21 19 18 15 13 11 13 13 16 19 20 21 21 16 15 14 14 12 10 13 12 8 17 16 16 15 16 16 18 17 18 19
22 21 19 18 22 22 20 22 17 13 12 16 20 21 15 17 15 12 8 11 12 13 17 18 19 16 13 13 13 13 12 13 14 11 11 12 14 14 16 17 16 18 18 18
15 17 17 18 7 12 6 7 9 10 12 13 18 17 11 12 16 16 16 11 8 6 11 14 18 18 15 13 15 15 15 14 14 14 13 12 12 16 14 13 15 15 16 17
6 10 15 19 6 8 10 5 11 13 14 14 19 18 2 16 18 14 14 11 7 8 4 8 12 16 15 14 14 15 16 15 14 13 12 12 13 13 12 13 13 15 15 17
10 10 9 3 9 14 16 7 14 12 15 14 14 10 8 17 15 17 15 13 14 5 5 6 4 7 13 13 13 15 16 15 14 12 12 12 12 13 12 12 13 11 14 15
10 8 10 11 16 15 10 5 11 12 14 15 6 5 14 17 13 16 14 16 14 16 8 9 7 8 9 13 13 12 12 14 14 13 11 12 11 10 12 11 11 13 14 12
6 5 8 11 20 12 14 16 10 14 13 11 7 7 12 17 13 15 15 15 15 13 14 12 12 11 13 12 13 14 12 12 13 14 11 8 12 11 11 11 9 11 12 10
7 10 21 18 13 13 15 11 13 15 14 12 11 7 11 13 14 13 14 13 14 14 14 14 14 13 12 12 13 15 14 11 12 13 12 11 10 10 9 9 7 7 7 7
12 12 15 18 15 15 11 16 19 20 14 12 12 12 14 12 13 13 13 13 14 15 15 15 14 13 13 11 12 14 15 13 11 10 12 11 8 6 7 8 8 6 6 5
19 19 18 15 9 13 14 14 14 15 16 13 13 12 12 13 12 12 12 13 12 12 13 14 15 14 13 13 13 11 13 13 11 8 10 9 8 6 6 5 4 6 5 5
14 15 9 14 13 17 16 13 12 12 13 14 13 13 13 12 11 10 11 11 11 12 13 14 15 15 14 14 14 13 11 9 9 10 9 7 7 9 2 4 6 8 8 4
13 15 15 15 14 13 9 11 13 13 13 13 12 10 12 11 11 10 10 11 12 13 14 13 13 14 14 14 15 15 12 11 9 10 9 8 8 8 8 10 5 4 9 6
13 13 15 16 8 8 11 13 13 11 11 8 11 11 11 11 11 11 11 10 11 12 13 13 14 14 13 14 15 14 14 6 7 7 8 9 10 8 7 7 9 9 3 7
14 12 9 6 8 8 8 10 10 10 10 11 10 11 11 12 12 12 12 11 11 9 6 10 13 14 12 11 13 13 12 9 8 8 7 6 7 7 8 7 7 8 4 4
10 7 5 4 11 7 7 7 8 8 8 9 11 12 13 14 15 14 13 12 12 11 14 11 12 12 8 11 14 11 11 8 8 9 9 8 4 6 7 6 8 6 7 4
11 9 6 8 7 5 6 6 6 8 10 10 12 12 13 14 15 15 15 13 12 13 13 12 10 7 10 14 13 9 9 11 11 8 8 8 9 8 5 7 8 7 9 2
4 4 3 2 5 5 7 7 7 8 9 10 11 10 10 10 13 12 13 14 14 13 13 10 10 10 12 12 10 9 9 9 9 10 9 7 8 10 11 10 9 9 8 6
4 3 2 2 3 6 7 8 9 9 8 9 7 8 10 10 13 15 15 14 14 14 12 13 8 12 14 10 7 9 9 11 10 11 11 11 9 10 9 10 9 9 8 9
4 2 1 3 4 5 6 8 9 11 11 11 6 8 10 10 10 13 12 14 15 11 16 16 16 15 15 13 7 8 9 10 11 10 9 11 12 12 10 11 11 9 10 9
3 2 2 4 6 6 3 5 7 9 9 9 9 10 11 11 10 11 12 12 14 13 15 16 13 12 11 11 12 11 10 10 10 10 10 10 11 11 12 12 11 10 9 10
2 1 3 3 5 6 6 8 10 9 8 9 10 10 10 11 10 9 9 12 11 11 10 11 11 15 12 17 12 11 12 11 10 9 9 10 10 11 11 11 11 10 10 9
5 4 4 4 5 6 7 9 11 9 8 10 11 11 10 10 10 9 10 8 10 13 11 11 14 17 18 12 11 12 12 12 11 11 10 10 10 10 11 10 11 11 11 10
4 4 4 4 6 6 9 8 7 9 11 11 11 9 9 9 9 8 8 10 11 11 11 13 14 18 18 11 11 11 12 12 12 11 12 14 11 11 11 11 12 11 12 11
5 4 5 7 8 8 5 6 8 10 9 9 12 9 9 8 8 10 10 11 11 11 11 14 17 17 10 10 11 11 11 11 12 12 12 12 12 12 11 11 12 12 11 10
8 7 6 5 7 7 7 7 8 8 8 9 9 8 8 8 8 9 11 13 11 13 10 10 10 11 11 11 12 12 12 12 12 12 13 13 13 13 12 12 12 11 10 9
8 7 6 6 6 6 6 7 8 9 9 9 10 10 10 10 10 10 12 10 10 10 10 10 10 11 11 11 12 12 11 12 13 12 12 12 12 12 12 12 10 9 9 8
Wind_Direction
279 272 279 282 282 284 269 260 257 280 288 300 323 340 334 328 357 339 345 355 353 353 356 351 15 6 7 354 341 336 293 283 212 203 212 222 216 212 212 210 209 206 205 210
278 279 276 277 278 275 263 265 262 265 277 342 326 344 332 332 352 350 353 344 1 4 3 5 356 16 15 359 351 346 318 303 288 278 202 214 214 212 214 213 213 210 209 209
273 283 294 282 272 262 251 251 264 285 327 321 339 331 341 322 358 358 334 359 344 5 9 1 358 356 8 4 3 9 12 7 347 311 298 231 214 218 213 212 211 214 214 212
278 282 270 279 273 306 336 31 29 309 333 355 333 331 297 2 21 16 4 346 349 354 18 3 354 353 351 5 7 10 10 12 10 356 340 305 270 223 224 221 218 217 218 218
283 303 279 273 355 345 317 28 1 344 349 353 334 333 296 17 2 356 353 356 356 333 26 21 2 344 355 7 9 8 5 2 2 6 354 343 321 280 235 227 225 221 220 221
295 295 294 141 249 325 307 264 346 342 347 349 338 331 349 349 347 331 348 352 345 5 326 342 346 338 357 359 9 7 355 351 355 357 3 355 341 320 308 261 235 227 224 220
259 265 286 9 352 321 290 350 335 339 340 346 338 316 315 319 322 321 343 350 346 338 0 9 5 325 4 355 357 353 345 344 346 352 359 3 352 348 330 312 280 234 230 218
237 259 270 346 327 342 331 325 342 325 341 342 332 340 326 307 329 331 341 346 350 346 344 360 1 351 346 357 341 337 343 340 338 341 351 356 8 357 350 345 327 305 229 221
306 301 315 298 288 313 316 315 320 316 321 327 321 327 306 314 329 339 339 346 347 351 349 347 356 352 344 340 346 333 324 331 336 333 340 347 5 1 355 355 354 340 335 247
256 263 280 308 303 297 316 325 334 311 305 303 313 321 314 329 332 336 346 347 349 346 344 343 347 350 344 351 341 333 321 329 322 326 333 348 353 357 357 355 353 340 338 320
283 282 292 287 298 316 325 324 327 327 322 325 312 313 317 323 329 334 339 336 342 339 336 334 337 343 343 353 343 338 326 320 320 328 330 334 350 343 341 6 346 322 325 304
264 276 231 308 328 328 321 316 331 329 324 319 322 318 324 320 327 342 327 328 331 333 330 335 333 335 341 346 339 335 327 325 315 317 318 330 338 335 351 329 348 350 346 329
262 280 296 291 297 308 303 307 314 315 303 302 306 320 319 323 330 321 325 332 331 330 332 324 326 331 337 339 337 330 331 329 330 313 323 327 334 338 335 330 245 67 6 346
274 273 277 285 322 321 315 305 295 292 285 310 323 327 328 328 323 327 332 330 325 330 322 327 326 327 327 334 331 325 322 304 329 329 321 315 322 317 313 314 326 325 344 11
271 269 279 7 308 284 277 289 299 309 351 330 325 317 324 321 321 324 324 323 331 317 314 331 326 315 319 322 313 318 320 324 336 313 296 285 295 300 307 303 310 307 306 2
271 264 268 252 273 282 301 318 317 319 319 316 317 319 321 319 317 317 314 339 331 328 326 325 304 301 298 315 317 317 319 307 309 309 310 300 310 316 306 305 300 304 283 226
267 267 256 252 259 294 302 320 319 313 314 311 315 319 319 318 314 314 320 318 313 307 305 288 277 320 334 314 320 322 319 316 310 298 312 320 321 305 281 291 284 285 279 242
259 304 299 307 305 295 301 312 305 297 306 314 310 311 305 301 304 305 307 309 310 306 298 302 328 343 308 316 325 315 305 305 304 305 306 294 295 304 296 288 281 282 289 269
175 196 197 260 293 298 303 297 300 312 300 295 304 290 296 296 301 313 312 308 303 300 315 319 336 313 314 312 302 300 297 301 299 301 303 299 289 289 291 293 289 280 283 275
163 178 265 259 262 266 291 300 306 305 305 304 315 295 287 292 304 306 303 300 303 300 312 314 322 312 313 307 299 295 285 289 291 293 293 294 293 289 285 281 279 274 276 271
211 254 275 287 281 285 282 281 277 276 281 296 287 286 289 292 291 291 294 304 310 309 310 303 310 310 311 317 316 303 297 294 290 291 287 284 281 277 282 285 279 280 280 276
193 272 285 281 281 281 285 288 290 289 281 284 285 286 290 292 291 288 275 277 298 306 311 310 307 311 308 304 300 299 296 288 284 279 273 270 269 270 271 277 282 274 264 263
222 218 248 268 277 284 296 292 291 274 280 289 293 295 292 297 298 297 298 301 305 313 313 303 302 300 299 298 299 297 295 294 291 285 280 275 271 272 271 272 269 271 272 269
239 224 251 265 269 272 285 288 299 295 293 284 282 285 302 304 298 291 291 299 296 309 299 296 295 295 298 297 296 295 294 293 291 288 284 278 274 271 266 261 259 260 258 256
222 250 256 258 264 269 277 299 294 285 288 299 300 296 292 292 295 307 305 301 294 305 302 298 296 295 293 297 295 293 293 291 290 288 286 282 277 269 263 261 258 255 253 245
236 250 275 298 289 295 296 296 292 300 303 302 300 306 308 302 301 299 298 304 304 303 298 298 296 297 296 296 297 298 296 295 293 290 288 284 281 278 273 267 259 256 249 238
244 244 261 259 269 274 287 310 308 297 306 304 299 302 305 305 298 296 295 299 300 301 301 300 301 301 298 299 298 300 301 299 297 297 295 290 283 279 273 269 259 254 247 231